Location: Washington
(38.8950°N, 77.0370°W)
Time: 09:33:27
(UTC-04:00)

ISS - All Passes

Search period start: 29 April 2017 00:00
Search period end: 09 May 2017 00:00
Orbit: 401 x 409 km, 51.6° (Epoch: 29 April)

Date Brightness Start Highest point End Pass type
(mag) Time Alt. Az. Time Alt. Az. Time Alt. Az.
29 Apr - 07:45:16 10° SW 07:48:31 69° SE 07:51:46 10° NE daylight
29 Apr - 09:22:55 10° WNW 09:25:18 18° NNW 09:27:40 10° NNE daylight
29 Apr - 12:38:50 10° NNW 12:40:31 13° NNE 12:42:12 10° NE daylight
29 Apr - 14:14:22 10° NW 14:17:36 56° NE 14:20:48 10° ESE daylight
29 Apr - 15:52:01 10° W 15:53:44 14° SW 15:55:26 10° SSW daylight
30 Apr - 06:53:36 10° SSW 06:56:34 33° SE 06:59:33 10° ENE daylight
30 Apr - 08:30:14 10° W 08:33:05 27° NNW 08:35:56 10° NNE daylight
30 Apr - 10:10:10 10° NNW 10:10:27 10° N 10:10:43 10° N daylight
30 Apr - 11:47:23 10° N 11:48:10 11° N 11:48:58 10° NNE daylight
30 Apr - 13:22:30 10° NW 13:25:29 31° NNE 13:28:26 10° E daylight
30 Apr - 14:59:07 10° WNW 15:01:54 26° SW 15:04:40 10° SSE daylight
01 May - 06:02:31 10° S 06:04:42 17° SE 06:06:54 10° E daylight
01 May - 07:37:47 10° WSW 07:40:56 46° NW 07:44:06 10° NE daylight
01 May - 09:16:37 10° NW 09:18:05 12° NNW 09:19:32 10° N daylight
01 May - 12:30:44 10° NNW 12:33:17 20° NNE 12:35:49 10° ENE daylight
01 May - 14:06:47 10° WNW 14:09:58 54° SW 14:13:09 10° SE daylight
02 May - 06:45:36 10° SW 06:48:52 90° N 06:52:09 10° NE daylight
02 May - 08:23:35 10° WNW 08:25:45 16° NNW 08:27:54 10° NNE daylight
02 May - 11:39:02 10° NNW 11:41:00 15° NNE 11:42:57 10° ENE daylight
02 May - 13:14:42 10° NW 13:17:58 73° NE 13:21:12 10° ESE daylight
02 May - 14:53:25 10° WSW 14:54:00 10° SW 14:54:35 10° SW daylight
03 May - 05:53:45 10° SSW 05:56:52 43° SE 05:59:59 10° ENE daylight
03 May - 07:30:47 10° W 07:33:28 23° NNW 07:36:10 10° NNE daylight
03 May - 10:47:28 10° N 10:48:38 11° NNE 10:49:49 10° NE daylight
03 May - 12:22:45 10° NW 12:25:51 38° NNE 12:28:55 10° ESE daylight
03 May - 13:59:39 10° W 14:02:09 20° SW 14:04:39 10° S daylight
04 May - 05:02:21 10° S 05:04:56 22° SE 05:07:31 10° E visible
04 May - 06:38:11 10° WSW 06:41:16 37° NNW 06:44:20 10° NE daylight
04 May - 08:17:22 10° NNW 08:18:29 11° NNW 08:19:37 10° N daylight
04 May - 11:30:55 10° NNW 11:33:38 24° NNE 11:36:21 10° E daylight
04 May - 13:07:09 10° WNW 13:10:14 40° SW 13:13:18 10° SSE daylight
05 May - 04:12:04 10° SE 04:13:03 11° SE 04:14:04 10° ESE visible
05 May - 05:45:52 10° WSW 05:49:07 69° NW 05:52:23 10° NE daylight
05 May - 07:24:11 10° NW 07:26:06 15° NNW 07:28:01 10° NNE daylight
05 May - 10:39:09 10° NNW 10:41:21 17° NNE 10:43:32 10° ENE daylight
05 May - 12:14:56 10° NW 12:18:12 86° SW 12:21:26 10° SE daylight
06 May - 04:53:50 10° SW 04:57:03 57° SE 05:00:16 10° ENE visible
06 May - 06:31:14 10° WNW 06:33:45 20° NNW 06:36:17 10° NNE daylight
06 May - 09:47:28 10° NNW 09:48:57 12° NNE 09:50:28 10° NE daylight
06 May - 11:22:54 10° NW 11:26:05 48° NE 11:29:14 10° ESE daylight
06 May - 13:00:12 10° W 13:02:17 16° SW 13:04:22 10° S daylight
07 May - 04:02:12 10° SSW 04:05:03 28° SE 04:07:54 10° ENE visible
07 May - 05:38:32 10° W 05:41:29 30° NNW 05:44:27 10° NE daylight
07 May - 07:18:03 10° NNW 07:18:47 11° N 07:19:32 10° N daylight
07 May - 08:56:04 10° N 08:56:32 10° N 08:56:58 10° NNE daylight
07 May - 10:30:59 10° NNW 10:33:52 28° NNE 10:36:44 10° E daylight
07 May - 12:07:25 10° WNW 12:10:21 31° SW 12:13:16 10° SSE daylight
08 May - 03:11:15 10° SSE 03:13:06 14° SE 03:14:58 10° E visible
08 May - 04:46:03 10° WSW 04:49:16 54° NW 04:52:30 10° NE visible
08 May - 06:24:41 10° NW 06:26:21 13° NNW 06:28:00 10° NNE daylight
08 May - 09:39:09 10° NNW 09:41:34 19° NNE 09:43:58 10° ENE daylight
08 May - 11:15:05 10° WNW 11:18:19 66° SW 11:21:33 10° SE daylight
